Location: Colossi of Memnon
(25.7167°N, 32.6167°E)
Time: 10:50:15
(UTC+00:00)

Cosmos 1328 Rocket - Pass Details

Date: 05 March 2021
Orbit: 602 x 626 km, 82.5° (Epoch: 19 April)

Event Time Altitude Azimuth Distance (km) Brightness Sun altitude
Rises 03:09:49 0° 186° (S) 2,843 6.9 -14.1°
Reaches altitude 10° 03:12:01 10° 187° (S) 1,941 6.0 -13.6°
Maximum altitude 03:16:18 82° 274° (W) 612 3.4 -12.7°
Drops below altitude 10° 03:20:37 10° 3° (N) 1,946 6.1 -11.7°
Sets 03:22:50 0° 4° (N) 2,852 7.0 -11.2°
